LiveATC.Net - Listen to live air traffic control over the Internet!


ICAO: LSZG  IATA: ZHI   Airport: Grenchen Airport
City: Grenchen
Country: Switzerland   Continent: Europe
LSZG METAR Weather: LSZG 161350Z 20001KT CAVOK 08/06 Q1009 NOSIG
LSZG Flight Activity (FlightAware)
LSZG Webcam:  (Airport Webcams) 

LSZG Tower
Feed Status: UP   Listeners: 3
Listen in your browser - HTML5 player (in browser, HTML5)
Click here to listen with your own player (launches your MP3 player)
Archive Access: LSZG Tower
FacilityFrequency
Grenchen Tower120.100

NOTICE

Unauthorized use prohibited. See LiveATC.net Terms of Service


Airport/ARTCC Code
Frequency Search
(e.g., 124.400, 128.75)
Site-wide search
 


Browse Feeds
Top 50 Feeds
Coverage Map
Bad Weather Areas

LiveATC FAQ
Offer LiveATC feed
Contact LiveATC.net
Press Inquiries

LiveATC on iPhone
LiveATC on Android

Windows Phone
Windows 8/10

LiveATC Mobile
(Mobile browser)

ATC Audio Archives
Interesting Recordings

LiveATC Forums


Home Page
About LiveATC.net
Make a Donation
Terms of Use
Privacy Policy

Canadian Air Freqs

AIRMETs/SIGMETs

FAA Airport Status
Nat'l Airspace Status
Arrival Demand Charts


Server Software By:
Icecast.org
Liquidsoap